• In Moldova, Republic
  • List of Countries
  • For 7 days
  • Water Temperature
  • Satellite Maps
  • Weather Map
  • Weather Widgets
  • user-avatar
    Login

    Hourly Weather Igls

    Today, 31 March, Friday

    Time Temperature Precipitation Wind Pressure Humidity
    00:00 +7°C° 0 mm 2 mps 689 mmHg 88%
    01:00 +6°C° 0 mm 2 mps 689 mmHg 89%
    02:00 +6°C° 0 mm 2 mps 689 mmHg 89%
    03:00 +6°C° 0 mm 2 mps 688 mmHg 89%
    04:00 +6°C° 0 mm 2 mps 688 mmHg 89%
    05:00 +6°C° 0 mm 2 mps 688 mmHg 89%
    06:00 +7°C° 0 mm 2 mps 688 mmHg 89%
    07:00 +7°C° 0 mm 2 mps 688 mmHg 88%
    08:00 +9°C° 0 mm 2 mps 688 mmHg 81%
    09:00 +13°C° 0 mm 2 mps 688 mmHg 75%
    10:00 +15°C° 0 mm 2 mps 688 mmHg 68%
    11:00 +18°C° 0 mm 1 mps 688 mmHg 64%
    12:00 +19°C° 0 mm 1 mps 688 mmHg 59%
    13:00 +20°C° 0 mm 1 mps 687 mmHg 55%
    14:00 +19°C° 0 mm 1 mps 687 mmHg 57%
    15:00 +19°C° 0 mm 1 mps 686 mmHg 59%
    16:00 +19°C° 0 mm 1 mps 686 mmHg 61%
    17:00 +15°C° 0.1 mm 1 mps 685 mmHg 72%
    18:00 +12°C° 0.1 mm 1 mps 684 mmHg 83%
    19:00 +9°C° 0.1 mm 1 mps 684 mmHg 94%
    20:00 +9°C° 0 mm 1 mps 684 mmHg 94%
    21:00 +8°C° 0 mm 2 mps 684 mmHg 93%
    22:00 +8°C° 0 mm 2 mps 684 mmHg 93%
    23:00 +8°C° 0 mm 2 mps 684 mmHg 93%

    Tomorrow, 1 April, Saturday

    Time Temperature Precipitation Wind Pressure Humidity
    00:00 +7°C° 0 mm 2 mps 684 mmHg 93%
    01:00 +7°C° 0 mm 2 mps 683 mmHg 93%
    02:00 +7°C° 0 mm 2 mps 683 mmHg 93%
    03:00 +6°C° 0 mm 2 mps 683 mmHg 93%
    04:00 +6°C° 0 mm 2 mps 682 mmHg 93%
    05:00 +6°C° 0 mm 2 mps 682 mmHg 92%
    06:00 +7°C° 0 mm 2 mps 682 mmHg 91%
    07:00 +7°C° 0 mm 2 mps 682 mmHg 90%
    08:00 +9°C° 0 mm 2 mps 682 mmHg 81%
    09:00 +12°C° 0 mm 2 mps 682 mmHg 72%
    10:00 +14°C° 0 mm 2 mps 683 mmHg 64%
    11:00 +15°C° 0 mm 2 mps 683 mmHg 60%
    12:00 +16°C° 0 mm 2 mps 682 mmHg 56%
    13:00 +17°C° 0 mm 2 mps 682 mmHg 53%
    14:00 +16°C° 0.4 mm 2 mps 682 mmHg 58%
    15:00 +15°C° 0.4 mm 2 mps 682 mmHg 63%
    16:00 +15°C° 0.4 mm 2 mps 681 mmHg 68%
    17:00 +13°C° 0.7 mm 2 mps 681 mmHg 77%
    18:00 +11°C° 0.7 mm 1 mps 681 mmHg 85%
    19:00 +9°C° 0.7 mm 1 mps 681 mmHg 94%
    20:00 +8°C° 0.5 mm 1 mps 682 mmHg 94%
    21:00 +8°C° 0.5 mm 1 mps 682 mmHg 94%
    22:00 +8°C° 0.5 mm 1 mps 682 mmHg 95%
    23:00 +8°C° 0.1 mm 1 mps 682 mmHg 95%

    Day after tomorrow, 2 April, Sunday

    Time Temperature Precipitation Wind Pressure Humidity
    00:00 +7°C° 0.1 mm 1 mps 683 mmHg 95%
    01:00 +7°C° 0.1 mm 1 mps 683 mmHg 96%
    02:00 +7°C° 0 mm 1 mps 683 mmHg 96%
    03:00 +7°C° 0 mm 1 mps 683 mmHg 95%
    04:00 +6°C° 0 mm 1 mps 683 mmHg 95%
    05:00 +7°C° 0 mm 1 mps 683 mmHg 92%
    06:00 +7°C° 0 mm 1 mps 683 mmHg 89%
    07:00 +7°C° 0 mm 1 mps 684 mmHg 86%
    08:00 +9°C° 0 mm 1 mps 684 mmHg 79%
    09:00 +11°C° 0 mm 1 mps 684 mmHg 72%
    10:00 +12°C° 0 mm 1 mps 685 mmHg 65%
    11:00 +13°C° 0 mm 1 mps 685 mmHg 64%
    12:00 +13°C° 0 mm 1 mps 685 mmHg 63%
    13:00 +14°C° 0 mm 1 mps 685 mmHg 63%
    14:00 +14°C° 0.1 mm 1 mps 685 mmHg 66%
    15:00 +13°C° 0.1 mm 1 mps 685 mmHg 68%
    16:00 +13°C° 0.1 mm 1 mps 685 mmHg 71%
    17:00 +11°C° 0.1 mm 1 mps 685 mmHg 79%
    18:00 +10°C° 0.1 mm 1 mps 685 mmHg 87%
    19:00 +8°C° 0.1 mm 1 mps 685 mmHg 95%
    20:00 +7°C° 0.1 mm 0 mps 685 mmHg 95%
    21:00 +7°C° 0.1 mm 0 mps 686 mmHg 96%
    22:00 +7°C° 0.1 mm 0 mps 686 mmHg 96%
    23:00 +7°C° 0 mm 0 mps 686 mmHg 97%

    3 April, Monday

    Time Temperature Precipitation Wind Pressure Humidity
    00:00 +8°C° 0 mm 1 mps 686 mmHg 97%
    01:00 +8°C° 0 mm 1 mps 686 mmHg 97%
    02:00 +8°C° 0.1 mm 1 mps 686 mmHg 97%
    03:00 +8°C° 0.1 mm 1 mps 686 mmHg 97%
    04:00 +8°C° 0.1 mm 1 mps 686 mmHg 97%
    05:00 +8°C° 0.1 mm 1 mps 687 mmHg 96%
    06:00 +8°C° 0.1 mm 1 mps 687 mmHg 95%
    07:00 +8°C° 0.1 mm 1 mps 687 mmHg 94%
    08:00 +9°C° 0.1 mm 1 mps 687 mmHg 89%
    09:00 +10°C° 0.1 mm 1 mps 687 mmHg 84%
    10:00 +11°C° 0.1 mm 1 mps 688 mmHg 78%
    11:00 +12°C° 0.2 mm 1 mps 687 mmHg 77%
    12:00 +12°C° 0.2 mm 2 mps 687 mmHg 76%
    13:00 +13°C° 0.2 mm 2 mps 687 mmHg 75%
    14:00 +12°C° 0.2 mm 2 mps 687 mmHg 77%
    15:00 +12°C° 0.2 mm 2 mps 687 mmHg 79%
    16:00 +12°C° 0.2 mm 2 mps 686 mmHg 81%
    17:00 +10°C° 0.2 mm 2 mps 686 mmHg 86%
    18:00 +10°C° 0.2 mm 1 mps 686 mmHg 91%
    19:00 +9°C° 0.2 mm 1 mps 686 mmHg 95%
    20:00 +8°C° 0.3 mm 1 mps 687 mmHg 96%
    21:00 +8°C° 0.3 mm 1 mps 687 mmHg 96%
    22:00 +8°C° 0.3 mm 1 mps 687 mmHg 96%
    23:00 +8°C° 0.2 mm 1 mps 687 mmHg 97%

    4 April, Tuesday

    Time Temperature Precipitation Wind Pressure Humidity
    00:00 +7°C° 0.2 mm 1 mps 687 mmHg 97%
    01:00 +7°C° 0.2 mm 1 mps 687 mmHg 97%
    02:00 +7°C° 0.1 mm 1 mps 687 mmHg 97%
    03:00 +7°C° 0.1 mm 1 mps 687 mmHg 97%
    04:00 +6°C° 0.1 mm 1 mps 687 mmHg 96%
    05:00 +7°C° 0.1 mm 1 mps 687 mmHg 95%
    06:00 +7°C° 0.1 mm 1 mps 687 mmHg 93%
    07:00 +7°C° 0.1 mm 1 mps 687 mmHg 92%
    08:00 +7°C° 0.1 mm 2 mps 687 mmHg 85%
    09:00 +7°C° 0.1 mm 2 mps 687 mmHg 79%
    10:00 +8°C° 0.1 mm 2 mps 687 mmHg 72%
    11:00 +9°C° 0.1 mm 2 mps 687 mmHg 70%
    12:00 +9°C° 0.1 mm 2 mps 687 mmHg 68%
    13:00 +10°C° 0.1 mm 2 mps 687 mmHg 65%
    14:00 +10°C° 0.1 mm 2 mps 687 mmHg 66%
    15:00 +9°C° 0.1 mm 2 mps 687 mmHg 68%
    16:00 +9°C° 0.1 mm 2 mps 687 mmHg 69%
    17:00 +8°C° 0.1 mm 2 mps 687 mmHg 77%
    18:00 +6°C° 0.1 mm 2 mps 687 mmHg 84%
    19:00 +6°C° 0.1 mm 1 mps 687 mmHg 92%
    20:00 +6°C° 0.1 mm 1 mps 687 mmHg 92%
    21:00 +6°C° 0.1 mm 1 mps 688 mmHg 92%
    22:00 +6°C° 0.1 mm 1 mps 688 mmHg 92%
    23:00 +6°C° 0.1 mm 1 mps 688 mmHg 93%

    5 April, Wednesday

    Time Temperature Precipitation Wind Pressure Humidity
    00:00 +5°C° 0.1 mm 1 mps 688 mmHg 93%
    01:00 +5°C° 0.1 mm 1 mps 688 mmHg 94%
    02:00 +5°C° 0.1 mm 1 mps 688 mmHg 94%
    03:00 +5°C° 0.1 mm 1 mps 688 mmHg 94%
    04:00 +4°C° 0.1 mm 1 mps 688 mmHg 94%
    05:00 +5°C° 0.1 mm 1 mps 688 mmHg 92%
    06:00 +4°C° 0.1 mm 2 mps 688 mmHg 90%
    07:00 +4°C° 0.1 mm 2 mps 688 mmHg 88%
    08:00 +5°C° 0.1 mm 2 mps 688 mmHg 80%
    09:00 +6°C° 0.1 mm 2 mps 688 mmHg 73%
    10:00 +8°C° 0.1 mm 2 mps 689 mmHg 66%
    11:00 +8°C° 0.1 mm 2 mps 688 mmHg 65%
    12:00 +9°C° 0.1 mm 2 mps 688 mmHg 63%
    13:00 +9°C° 0.1 mm 2 mps 688 mmHg 62%
    14:00 +9°C° 0.1 mm 2 mps 687 mmHg 66%
    15:00 +9°C° 0.1 mm 2 mps 687 mmHg 69%
    16:00 +9°C° 0.1 mm 2 mps 687 mmHg 73%
    17:00 +8°C° 0.4 mm 2 mps 687 mmHg 80%
    18:00 +7°C° 0.4 mm 2 mps 687 mmHg 86%
    19:00 +6°C° 0.4 mm 2 mps 687 mmHg 93%
    20:00 +6°C° 1.2 mm 2 mps 687 mmHg 93%
    21:00 +6°C° 1.2 mm 2 mps 687 mmHg 94%
    22:00 +5°C° 1.2 mm 2 mps 688 mmHg 94%
    23:00 +5°C° 1 mm 2 mps 687 mmHg 95%
    Show more